FW3646 Weather Reports


time (UTC)temp
C
wind
direction
speed
KPH
gust
KPH
rain 1hr
cm
rain 24hr
cm
rain mn
cm
humidity
%
barometer
mb
20260507035537 10 189 1.6 4.8 0.00 0.76 0.00 92 1013.1
20260507035009 10 189 3.2 4.8 0.00 0.76 0.00 92 1013.1
20260507034509 10 189 3.2 4.8 0.00 0.76 0.00 92 1013.0
20260507034005 10 189 1.6 4.8 0.00 0.76 0.00 92 1013.0
20260507033457 10 189 3.2 4.8 0.00 0.76 0.00 92 1012.9
20260507032942 10 189 3.2 4.8 0.00 0.76 0.00 92 1012.9
20260507032717 10 189 3.2 4.8 0.00 0.76 0.00 92 1012.9
20260507031940 10 189 1.6 3.2 0.00 0.76 0.00 92 1012.8
20260507031455 10 189 1.6 4.8 0.00 0.76 0.00 92 1012.8
20260507031449 10 189 3.2 4.8 0.00 0.76 0.00 92 1012.8
20260507030436 10 189 1.6 4.8 0.00 0.76 0.00 92 1012.8
20260507025938 10 189 1.6 4.8 0.00 0.76 0.00 91 1012.8
20260507025706 10 189 0.0 0.0 0.00 0.76 0.00 91 1012.7
20260507024936 10 189 0.0 0.0 0.00 0.76 0.00 91 1012.7
20260507024435 10 189 0.0 0.0 0.00 0.76 0.00 91 1012.6
20260507023937 10 189 0.0 0.0 0.00 0.76 0.00 91 1012.7
20260507023434 10 189 0.0 0.0 0.00 0.76 0.00 91 1012.7
20260507022935 10 189 0.0 3.2 0.00 0.76 0.00 91 1012.7
20260507022436 10 189 1.6 4.8 0.00 0.76 0.00 91 1012.8
20260507021935 10 189 1.6 4.8 0.00 0.76 0.00 91 1012.7
20260507021437 10 196 1.6 3.2 0.00 0.76 0.00 91 1012.7
20260507020908 10 196 1.6 3.2 0.00 0.76 0.00 91 1012.7
20260507020636 10 196 3.2 4.8 0.00 0.76 0.00 91 1012.7
20260507020152 10 196 3.2 4.8 0.00 0.76 0.00 91 1012.7
20260507015407 10 196 3.2 4.8 0.00 0.76 0.00 91 1012.6
20260507014906 10 196 3.2 6.4 0.00 0.76 0.00 92 1012.6
20260507014359 10 196 3.2 6.4 0.00 0.76 0.00 92 1012.6
20260507014137 10 176 3.2 9.7 0.00 0.76 0.00 92 1012.5
20260507013626 10 210 4.8 9.7 0.00 0.76 0.00 92 1012.6
20260507013622 10 179 4.8 9.7 0.00 0.76 0.00 92 1012.7
20260507012353 10 199 3.2 8.0 0.00 0.76 0.00 91 1012.6
20260507011911 10 174 1.6 4.8 0.00 0.76 0.00 91 1012.5
20260507011902 10 174 1.6 8.0 0.00 0.76 0.00 91 1012.5
20260507010844 10 173 3.2 4.8 0.00 0.76 0.00 91 1012.5
20260507010345 10 174 3.2 8.0 0.00 0.76 0.00 91 1012.4
20260507005842 10 173 3.2 8.0 0.00 0.76 0.00 91 1012.4
20260507005616 10 183 1.6 6.4 0.00 0.76 0.00 91 1012.3
20260507004840 10 210 3.2 4.8 0.00 0.76 0.00 91 1012.2
20260507004336 10 210 3.2 4.8 0.00 0.76 0.00 90 1011.3
20260507003844 10 210 3.2 4.8 0.00 0.76 0.00 90 1012.1
20260507003840 10 210 3.2 4.8 0.00 0.76 0.00 90 1012.1
20260507002840 10 210 3.2 4.8 0.00 0.76 0.00 90 1012.0
20260507002337 10 210 3.2 4.8 0.00 0.76 0.00 90 1012.1
20260507001827 10 210 3.2 6.4 0.00 0.76 0.00 90 1012.1
20260507001326 10 210 3.2 6.4 0.00 0.76 0.00 90 1012.2
20260507000826 10 210 4.8 6.4 0.00 0.76 0.00 90 1012.2
20260507000328 10 210 4.8 6.4 0.00 0.76 0.00 89 1012.3
20260506235824 10 210 4.8 6.4 0.00 0.76 0.00 89 1012.2
20260506235316 10 210 3.2 6.4 0.00 0.76 0.00 89 1012.2
20260506235048 11 210 3.2 6.4 0.00 0.76 0.00 89 1012.3
20260506234614 11 210 4.8 8.0 0.00 0.76 0.00 89 1012.1
20260506233816 11 212 4.8 8.0 0.00 0.76 0.00 88 1012.1
20260506233312 11 212 4.8 6.4 0.00 0.76 0.00 88 1012.0
20260506232813 11 212 4.8 6.4 0.00 0.76 0.00 88 1012.0
20260506232309 11 212 4.8 6.4 0.00 0.76 0.00 88 1011.9
20260506232046 11 212 4.8 6.4 0.00 0.76 0.00 88 1011.8
20260506231352 11 210 4.8 8.0 0.00 0.76 0.00 88 1011.8
20260506231342 11 212 4.8 6.4 0.00 0.76 0.00 88 1011.8
20260506230311 11 205 4.8 8.0 0.00 0.76 0.00 88 1011.8
20260506225755 11 213 4.8 8.0 0.00 0.76 0.00 88 1011.8
20260506225256 11 210 4.8 8.0 0.00 0.76 0.00 88 1011.8
20260506224750 11 210 4.8 8.0 0.00 0.76 0.00 88 1011.7
20260506224251 11 199 4.8 9.7 0.00 0.76 0.00 88 1011.8
20260506223748 11 193 4.8 9.7 0.00 0.76 0.00 88 1011.7
20260506223242 11 213 4.8 8.0 0.00 0.79 0.00 88 1011.6
20260506222742 11 211 4.8 8.0 0.00 0.79 0.00 89 1011.6
20260506222234 11 206 3.2 6.4 0.00 0.79 0.00 89 1011.5
20260506221735 11 204 1.6 6.4 0.00 0.79 0.00 89 1011.5
20260506221509 12 210 0.0 0.0 0.00 0.79 0.00 89 1011.5
20260506220953 12 210 0.0 0.0 0.00 0.79 0.00 89 1011.5
20260506220224 12 210 0.0 0.0 0.00 0.79 0.00 89 1011.4
20260506215716 12 210 0.0 0.0 0.00 0.79 0.79 89 1011.3
20260506215215 12 210 0.0 1.6 0.00 0.79 0.79 89 1011.3
20260506214709 12 210 0.0 3.2 0.03 0.79 0.79 89 1011.2
20260506214209 12 210 1.6 6.4 0.03 0.79 0.79 89 1011.2
20260506213710 12 210 1.6 6.4 0.03 0.79 0.79 89 1011.1
20260506213209 12 210 1.6 4.8 0.05 0.79 0.79 89 1011.1
20260506212701 12 210 1.6 4.8 0.05 0.79 0.79 89 1011.0
20260506212159 12 210 1.6 8.0 0.05 0.79 0.79 89 1010.9
20260506211650 12 205 1.6 8.0 0.05 0.79 0.79 88 1010.8
20260506211151 12 208 1.6 8.0 0.05 0.79 0.79 88 1010.0
20260506210643 12 203 1.6 6.4 0.05 0.79 0.79 88 1010.6
20260506210139 12 206 1.6 9.7 0.05 0.79 0.79 88 1010.7
20260506205637 12 206 1.6 9.7 0.05 0.79 0.79 89 1010.6
20260506205137 12 220 1.6 8.0 0.05 0.79 0.76 89 1010.6
20260506204638 12 190 3.2 12.9 0.03 0.76 0.76 89 1010.5
20260506204136 13 202 3.2 12.9 0.03 0.76 0.76 89 1010.5
20260506203637 13 218 1.6 8.0 0.03 0.76 0.76 89 1010.3
20260506203351 13 184 1.6 8.0 0.00 0.74 0.74 89 1010.3
20260506202611 13 244 1.6 8.0 0.00 0.74 0.74 90 1010.2
20260506202109 13 200 1.6 6.4 0.00 0.74 0.74 90 1010.1
20260506201608 13 200 1.6 6.4 0.00 0.74 0.74 90 1010.2
20260506201046 13 197 1.6 8.0 0.00 0.74 0.74 90 1010.0
20260506200548 13 237 1.6 8.0 0.00 0.74 0.74 90 1009.9
20260506200318 13 212 0.0 4.8 0.00 0.74 0.74 90 1009.9
20260506195549 13 217 1.6 4.8 0.00 0.74 0.74 90 1009.9
20260506195045 13 217 3.2 4.8 0.00 0.74 0.74 90 1009.8
20260506194536 13 201 3.2 6.4 0.00 0.74 0.74 90 1009.8
20260506194053 13 208 1.6 6.4 0.00 0.74 0.74 90 1009.6
20260506193537 13 208 3.2 6.4 0.00 0.74 0.74 90 1009.7
20260506193036 13 208 3.2 9.7 0.00 0.74 0.74 90 1009.6
20260506192800 13 208 3.2 11.3 0.00 0.74 0.74 90 1009.4
20260506192301 13 212 4.8 11.3 0.00 0.74 0.74 90 1009.4
20260506191534 13 214 3.2 9.7 0.00 0.74 0.74 90 1009.3
20260506191056 13 89 0.0 0.0 0.00 0.74 0.74 90 1008.3
20260506191046 13 164 0.0 6.4 0.00 0.74 0.74 90 1008.7
20260506190019 13 88 0.0 0.0 0.00 0.76 0.74 90 1008.3
20260506185744 13 31 0.0 0.0 0.00 0.76 0.74 90 1008.1
20260506185009 13 31 0.0 0.0 0.00 0.76 0.74 89 1007.5
20260506184508 13 24 0.0 0.0 0.00 0.76 0.74 89 1007.9
20260506184235 13 24 0.0 0.0 0.00 0.76 0.74 89 1007.8
20260506183511 13 24 1.6 6.4 0.00 0.76 0.74 89 1007.5
20260506183008 13 23 3.2 9.7 0.03 0.76 0.74 89 1007.1
20260506182454 13 359 4.8 14.5 0.03 0.79 0.74 89 1006.9
20260506181954 13 347 6.4 14.5 0.05 0.79 0.74 89 1006.7
20260506181452 13 39 9.7 19.3 0.05 0.79 0.74 89 1006.6
20260506180952 14 343 8.0 20.9 0.08 0.79 0.74 89 1006.6
20260506180451 14 359 4.8 20.9 0.13 0.79 0.74 90 1006.6
20260506175952 14 312 3.2 11.3 0.20 0.79 0.74 89 1006.4
20260506175450 14 4 3.2 11.3 0.61 0.79 0.74 89 1006.3
20260506174949 14 35 3.2 12.9 0.71 0.79 0.74 89 1006.4
20260506174721 14 323 3.2 14.5 0.71 0.79 0.74 88 1006.4
20260506173948 14 304 6.4 22.5 0.71 0.79 0.74 88 1006.5
20260506173448 14 320 8.0 22.5 0.71 0.79 0.74 87 1006.5
20260506172947 14 317 8.0 22.5 0.71 0.79 0.71 87 1006.4
20260506172447 15 330 8.0 22.5 0.71 0.79 0.71 85 1006.3
20260506171944 15 308 8.0 17.7 0.69 0.76 0.71 84 1006.0
20260506171444 15 18 6.4 17.7 0.66 0.74 0.69 82 1005.9
20260506170945 15 330 8.0 24.1 0.64 0.71 0.66 81 1005.7
20260506170744 16 311 16.1 40.2 0.61 0.69 0.61 78 1005.7
20260506170213 16 313 22.5 40.2 0.51 0.61 0.51 75 1005.5
20260506165443 18 320 24.1 49.9 0.10 0.18 0.08 67 1004.9
20260506164942 20 308 20.9 49.9 0.00 0.08 0.03 55 1004.1
20260506164442 21 321 12.9 45.1 0.00 0.08 0.03 49 1003.5
20260506163940 22 253 4.8 17.7 0.00 0.08 0.03 41 1003.5
20260506163440 23 305 1.6 4.8 0.00 0.08 0.03 39 1002.7
20260506163215 23 4 0.0 4.8 0.00 0.08 0.03 39 1002.6
20260506163209 23 63 0.0 4.8 0.00 0.08 0.03 40 1002.4
20260506161935 23 45 0.0 4.8 0.00 0.08 0.03 38 1002.5
20260506161436 23 75 0.0 4.8 0.00 0.08 0.03 40 1003.0
20260506161201 23 75 1.6 4.8 0.00 0.08 0.03 38 1003.0
20260506160411 23 77 0.0 4.8 0.00 0.08 0.03 38 1003.3
20260506155910 24 56 0.0 3.2 0.00 0.08 0.03 39 1003.4
20260506155348 24 125 0.0 1.6 0.00 0.08 0.03 39 1003.5
20260506154848 24 81 0.0 1.6 0.00 0.08 0.03 38 1003.7
20260506154607 24 81 0.0 4.8 0.00 0.08 0.03 37 1003.6
20260506153809 25 81 0.0 4.8 0.00 0.08 0.03 36 1003.6
20260506153308 25 42 0.0 3.2 0.00 0.08 0.03 37 1003.6
20260506153041 25 111 1.6 4.8 0.00 0.08 0.03 37 1003.7
20260506152308 25 4 1.6 8.0 0.00 0.08 0.03 37 1003.6
20260506152029 25 154 1.6 8.0 0.00 0.08 0.03 37 1003.7
20260506151258 25 168 1.6 4.8 0.00 0.08 0.03 36 1004.0
20260506150739 25 56 1.6 4.8 0.00 0.08 0.03 37 1003.8
20260506150239 25 133 1.6 4.8 0.00 0.08 0.03 37 1004.0
20260506145739 25 50 3.2 8.0 0.00 0.08 0.03 37 1004.2
20260506145237 25 21 3.2 8.0 0.00 0.08 0.03 36 1004.3
20260506144736 25 143 1.6 8.0 0.00 0.08 0.03 34 1004.5
20260506144237 26 179 1.6 8.0 0.00 0.08 0.03 34 1004.5
20260506143736 26 161 1.6 4.8 0.00 0.08 0.03 36 1004.6
20260506143238 26 111 1.6 6.4 0.00 0.08 0.03 35 1004.6
20260506142736 26 62 3.2 8.0 0.00 0.08 0.03 35 1004.6
20260506142236 26 64 3.2 8.0 0.00 0.08 0.03 36 1004.6
20260506141715 26 143 1.6 6.4 0.00 0.08 0.03 36 1004.6
20260506141214 26 156 3.2 9.7 0.00 0.08 0.03 36 1004.9
20260506140711 26 68 4.8 9.7 0.00 0.08 0.03 36 1004.9
20260506140210 27 197 4.8 9.7 0.00 0.08 0.03 35 1006.0
20260506135638 27 197 3.2 11.3 0.00 0.08 0.03 34 1005.1
20260506135141 27 141 3.2 9.7 0.00 0.08 0.03 34 1005.1
20260506134638 27 170 3.2 9.7 0.00 0.08 0.03 34 1005.2
20260506134135 27 58 1.6 8.0 0.00 0.08 0.03 33 1005.2
20260506133636 27 183 1.6 8.0 0.00 0.08 0.03 35 1005.3
20260506133113 27 197 1.6 9.7 0.00 0.08 0.03 36 1005.3
20260506132612 26 39 3.2 12.9 0.00 0.08 0.03 35 1005.3
20260506132109 26 68 4.8 12.9 0.00 0.08 0.03 34 1005.5
20260506131838 26 222 4.8 9.7 0.00 0.08 0.03 35 1005.5
20260506131108 27 185 3.2 9.7 0.00 0.08 0.03 33 1005.6
20260506130608 27 183 1.6 8.0 0.00 0.08 0.03 35 1005.7
20260506130108 27 199 3.2 8.0 0.00 0.08 0.03 36 1005.7
20260506125607 27 152 3.2 11.3 0.00 0.08 0.03 36 1005.8
20260506125337 27 23 1.6 11.3 0.00 0.08 0.03 38 1005.8
20260506124606 27 127 3.2 17.7 0.00 0.08 0.03 38 1005.9
20260506124103 27 201 3.2 17.7 0.00 0.08 0.03 38 1006.0
20260506123602 27 170 3.2 11.3 0.00 0.08 0.03 38 1005.8
20260506123053 27 114 3.2 9.7 0.00 0.08 0.03 39 1005.9
20260506122553 27 165 3.2 11.3 0.00 0.08 0.03 42 1006.0
20260506122331 26 116 3.2 11.3 0.00 0.08 0.03 42 1006.1
20260506121551 26 54 3.2 11.3 0.00 0.08 0.03 42 1006.2
20260506121051 26 126 1.6 11.3 0.00 0.08 0.03 42 1006.3
20260506120550 25 189 3.2 12.9 0.00 0.08 0.03 45 1006.3
20260506120047 25 86 3.2 14.5 0.00 0.08 0.03 45 1007.3
20260506115534 25 62 3.2 14.5 0.00 0.08 0.03 45 1006.5
20260506115034 25 27 3.2 12.9 0.00 0.08 0.03 45 1006.7
20260506114532 25 64 3.2 12.9 0.00 0.08 0.03 46 1006.8
20260506114256 25 131 1.6 9.7 0.00 0.08 0.03 47 1006.9
20260506113531 24 108 0.0 6.4 0.00 0.08 0.03 49 1007.1
20260506113028 24 92 1.6 8.0 0.00 0.08 0.03 48 1007.1
20260506112756 23 143 3.2 9.7 0.00 0.08 0.03 48 1007.3
20260506112254 23 115 3.2 9.7 0.00 0.08 0.03 50 1007.4
20260506111515 23 35 3.2 9.7 0.00 0.08 0.03 50 1007.4
20260506111010 23 169 1.6 9.7 0.00 0.08 0.03 52 1007.5
20260506110523 23 201 1.6 6.4 0.00 0.08 0.03 51 1007.7
20260506105955 23 198 1.6 8.0 0.00 0.08 0.03 51 1007.7
20260506105454 23 37 1.6 8.0 0.00 0.08 0.03 50 1007.7
20260506105214 23 137 1.6 6.4 0.00 0.08 0.03 52 1007.8
20260506104711 22 209 1.6 8.0 0.00 0.08 0.03 52 1007.9
20260506103940 22 126 1.6 8.0 0.00 0.08 0.03 54 1008.0
20260506103437 22 16 3.2 12.9 0.00 0.08 0.03 54 1008.0
20260506102934 22 36 4.8 12.9 0.00 0.08 0.03 53 1008.0
20260506102427 23 8 1.6 8.0 0.00 0.08 0.03 50 1008.6
20260506102200 23 39 1.6 8.0 0.00 0.08 0.03 50 1008.2
20260506101417 23 126 1.6 8.0 0.00 0.08 0.03 51 1008.2
20260506100913 23 102 1.6 8.0 0.00 0.08 0.03 53 1008.3
20260506100413 22 110 1.6 4.8 0.00 0.08 0.03 55 1008.4
20260506095912 22 48 0.0 4.8 0.00 0.08 0.03 55 1008.4
20260506095407 22 81 0.0 4.8 0.00 0.08 0.03 55 1008.4
20260506094909 22 41 1.6 6.4 0.00 0.08 0.03 54 1008.5
20260506094407 22 91 1.6 6.4 0.00 0.08 0.03 57 1008.6
20260506093909 21 139 1.6 9.7 0.00 0.08 0.03 59 1008.5
20260506093409 21 181 1.6 9.7 0.00 0.08 0.03 61 1008.5
20260506093156 20 39 1.6 8.0 0.00 0.08 0.03 60 1008.4
20260506092406 20 87 1.6 8.0 0.00 0.08 0.03 62 1008.4
20260506091906 20 46 1.6 8.0 0.00 0.08 0.03 62 1008.5
20260506091406 20 83 1.6 4.8 0.00 0.08 0.03 62 1008.6
20260506090908 20 94 1.6 9.7 0.00 0.08 0.03 61 1008.6
20260506090407 20 70 3.2 9.7 0.00 0.08 0.03 62 1008.5
20260506085906 20 157 1.6 6.4 0.00 0.08 0.03 65 1008.6
20260506085405 20 58 3.2 9.7 0.00 0.08 0.03 65 1008.6
20260506084905 19 13 3.2 11.3 0.00 0.08 0.03 64 1008.7
20260506084408 20 62 1.6 11.3 0.00 0.08 0.03 65 1008.6
20260506083906 20 78 1.6 8.0 0.00 0.08 0.03 67 1008.7
20260506083359 20 359 0.0 6.4 0.00 0.08 0.03 66 1008.7
20260506082859 19 155 1.6 8.0 0.00 0.08 0.03 69 1008.9
20260506082353 18 83 1.6 8.0 0.00 0.08 0.03 71 1008.9
20260506081848 18 70 1.6 6.4 0.00 0.08 0.03 71 1008.8
20260506081348 18 48 1.6 9.7 0.00 0.08 0.03 71 1008.8
20260506081108 17 32 1.6 9.7 0.00 0.08 0.03 73 1008.9
20260506080337 17 17 3.2 11.3 0.00 0.08 0.03 73 1008.9
20260506073335 16 14 1.6 6.4 0.00 0.08 0.03 78 1009.2
20260506072823 16 84 1.6 6.4 0.00 0.08 0.03 79 1009.2
20260506072317 16 13 1.6 6.4 0.00 0.08 0.03 80 1009.2
20260506071809 15 30 0.0 3.2 0.00 0.08 0.03 82 1009.2
20260506071539 15 4 0.0 3.2 0.00 0.08 0.03 83 1009.2
20260506070806 15 70 0.0 4.8 0.00 0.08 0.03 84 1009.2
20260506070305 15 70 0.0 4.8 0.00 0.08 0.03 86 1009.3
20260506062235 13 114 0.0 3.2 0.00 0.08 0.03 91 1009.4
20260506062024 13 118 1.6 3.2 0.00 0.08 0.03 91 1009.4
20260506061509 13 118 0.0 3.2 0.00 0.08 0.03 92 1009.4
20260506060734 13 126 0.0 0.0 0.00 0.08 0.03 93 1009.4
20260506060215 13 126 0.0 3.2 0.00 0.08 0.03 93 1009.4
20260506051131 12 146 0.0 0.0 0.00 0.08 0.03 92 1009.6
20260506050638 11 145 0.0 0.0 0.00 0.08 0.03 92 1009.5
20260506050126 11 145 0.0 0.0 0.00 0.08 0.03 92 1009.6
20260506044612 11 145 0.0 0.0 0.00 0.08 0.03 91 1009.6
20260506044109 11 145 0.0 0.0 0.00 0.08 0.03 91 1008.4
20260506043537 11 146 0.0 0.0 0.00 0.08 0.03 91 1009.5
20260506043037 11 146 0.0 0.0 0.00 0.08 0.03 91 1009.4
20260506042537 11 145 0.0 0.0 0.00 0.08 0.03 91 1009.5
20260506042008 11 146 0.0 0.0 0.00 0.08 0.03 91 1009.6
20260506041508 11 145 0.0 0.0 0.00 0.08 0.03 91 1009.6
20260506041008 11 145 0.0 0.0 0.00 0.08 0.03 90 1009.6
20260506040508 11 146 0.0 0.0 0.00 0.08 0.03 90 1009.6
20260506040011 11 146 0.0 0.0 0.00 0.08 0.03 90 1009.8